Location: Boursonne
(49.2024°N, 3.0468°E)
Time: 20:20:58
(UTC+00:00)

SJ 16-02 - Pass Details

Date: 03 March 2021
Orbit: 605 x 617 km, 75.0° (Epoch: 14 April)

Event Time Altitude Azimuth Distance (km) Brightness Sun altitude
Rises 19:33:26 0° 343° (NNW) 2,884 5.2 -20.1°
Reaches altitude 10° 19:35:48 10° 351° (N) 1,977 4.2 -20.5°
Enters shadow 19:39:30 39° 45° (NE) 934 2.0 -21.1°
